Starlink 32492

operational
NORAD ID: 62050 Int'l Des: 2024-216 Owner: SPXS Country: US Constellation: starlink
LEOCIRCULAR

Starlink 32492について

説明を読み込み中...

リアルタイム位置

3D地球を読み込み中...

次回通過

高度履歴

Altitude vs Time

uPlot chart will show altitude changes over time

軌道要素

1 62050U 24216U 25260.14368110 .00023773 00000-0 87112-3 0 9991
2 62050 43.0016 163.3694 0001276 281.7688 78.3021 15.27561828 47251
Epoch: Sep 17, 2025 • Age: 8 hours

現在のステータス

高度 482.8 km
速度 7.63 km/s
衛星直下点 -1.25°S, 5.76°W
打ち上げ日 Nov 21, 2024
運用期間 0.8 years
タイプ internet

技術仕様

分類 Payload
質量 730.00 kg
乾燥質量 700.00 kg
総質量 730.00 kg
長さ 0.30 m
直径 4.10 m
スパン 29.00 m
形状 Box + pan
製造者 SPXS
バスタイプ Starlink V2M
フェーズステータス In Orbit
所有者/国 SPXS/US

大規模コンステレーション

Loading constellations...